CW3065 Weather Reports


time (UTC)temp
F
wind
direction
speed
knots
gust
knots
rain 1hr
in
rain 24hr
in
rain mn
in
humidity
%
barometer
mb
20260510141005 43 175 0.9 1.7 0.00 0.09 0.03 74 1013.4
20260510140004 42 176 2.6 2.6 0.00 0.09 0.03 76 1013.4
20260510135505 42 165 1.7 4.3 0.00 0.09 0.03 78 1013.4
20260510135004 41 213 1.7 2.6 0.00 0.09 0.03 79 1013.4
20260510134504 41 223 0.9 2.6 0.00 0.09 0.03 81 1013.4
20260510133504 40 212 0.9 2.6 0.00 0.09 0.03 85 1013.4
20260510133004 40 222 2.6 2.6 0.00 0.09 0.03 87 1013.4
20260510131504 38 215 2.6 4.3 0.00 0.09 0.03 89 1013.5
20260510131004 38 202 2.6 4.3 0.00 0.09 0.03 90 1013.4
20260510130505 37 247 3.5 5.2 0.00 0.09 0.03 91 1013.4
20260510130004 37 222 2.6 2.6 0.00 0.09 0.03 91 1013.3
20260510125504 37 233 2.6 5.2 0.00 0.09 0.03 91 1013.2
20260510125004 37 219 2.6 5.2 0.00 0.09 0.03 91 1013.2
20260510124505 37 220 1.7 2.6 0.00 0.09 0.03 92 1013.2
20260510123505 36 228 0.9 2.6 0.00 0.09 0.03 93 1013.3
20260510123004 36 228 0.9 2.6 0.00 0.09 0.03 93 1013.3
20260510122504 36 265 0.0 0.0 0.00 0.09 0.03 93 1013.3
20260510122005 37 265 0.0 1.7 0.00 0.09 0.03 94 1013.3
20260510121504 37 265 1.7 2.6 0.00 0.09 0.03 94 1013.2
20260510120505 37 235 2.6 5.2 0.00 0.09 0.03 94 1013.2
20260510120004 37 243 1.7 2.6 0.00 0.09 0.03 95 1013.2
20260510115504 37 246 2.6 4.3 0.00 0.09 0.03 94 1013.2
20260510115004 36 329 1.7 2.6 0.00 0.09 0.03 94 1012.9
20260510114004 36 5 0.9 2.6 0.00 0.09 0.03 93 1012.8
20260510113505 36 7 0.0 2.6 0.00 0.09 0.03 93 1012.8
20260510113005 37 7 0.0 0.0 0.00 0.09 0.03 93 1012.8
20260510112505 37 7 0.9 1.7 0.00 0.09 0.03 94 1012.8
20260510112004 37 344 1.7 2.6 0.00 0.09 0.03 94 1012.7
20260510111504 37 344 0.9 2.6 0.00 0.09 0.03 94 1012.6
20260510111004 37 344 0.0 0.0 0.00 0.09 0.03 94 1012.6
20260510110504 37 344 0.0 0.0 0.00 0.09 0.03 94 1012.4
20260510110005 37 344 0.0 2.6 0.00 0.09 0.03 94 1012.3
20260510105505 37 344 1.7 2.6 0.00 0.09 0.03 94 1012.2
20260510105004 37 358 0.0 2.6 0.00 0.09 0.03 94 1012.1
20260510104505 37 11 0.0 0.0 0.00 0.09 0.03 94 1012.1
20260510104004 37 11 0.0 0.0 0.00 0.09 0.03 94 1012.1
20260510103005 37 11 0.0 0.0 0.00 0.09 0.03 94 1012.1
20260510101504 37 11 0.0 0.0 0.00 0.09 0.03 93 1012.2
20260510101004 37 338 0.0 1.7 0.00 0.09 0.03 93 1012.2
20260510100505 37 264 0.0 0.0 0.00 0.09 0.03 93 1012.2
20260510100004 37 264 0.0 2.6 0.00 0.09 0.03 93 1012.2
20260510095504 37 264 1.7 2.6 0.00 0.09 0.03 93 1012.1
20260510095005 37 264 1.7 2.6 0.00 0.09 0.03 93 1011.7
20260510094504 37 342 0.9 2.6 0.00 0.09 0.03 93 1011.6
20260510094004 37 342 1.7 2.6 0.00 0.09 0.03 92 1011.6
20260510093504 37 342 1.7 2.6 0.00 0.09 0.03 92 1011.6
20260510093004 37 342 1.7 2.6 0.00 0.09 0.03 91 1011.4
20260510092505 37 58 0.0 0.0 0.00 0.09 0.03 91 1011.4
20260510092004 37 58 0.0 0.0 0.00 0.09 0.03 91 1011.3
20260510091505 38 78 0.0 0.0 0.00 0.09 0.03 91 1011.1
20260510091004 38 84 0.0 0.0 0.00 0.09 0.03 92 1011.0
20260510090504 38 84 0.0 0.0 0.00 0.09 0.03 92 1011.0
20260510090004 38 80 0.9 1.7 0.00 0.09 0.03 92 1011.0
20260510085504 38 354 0.0 0.0 0.00 0.09 0.03 92 1011.0
20260510085004 38 354 0.0 0.0 0.00 0.09 0.03 92 1011.0
20260510084505 38 354 0.0 0.0 0.00 0.09 0.03 92 1011.0
20260510084004 38 354 0.0 0.0 0.00 0.09 0.03 93 1011.0
20260510083504 38 354 0.9 1.7 0.00 0.09 0.03 92 1011.0
20260510083004 38 354 0.0 0.0 0.00 0.09 0.03 92 1011.0
20260510082504 38 354 0.0 0.0 0.00 0.09 0.03 92 1010.9
20260510082004 38 354 0.0 0.0 0.00 0.09 0.03 92 1010.9
20260510081504 38 354 0.0 0.0 0.00 0.09 0.03 92 1010.9
20260510081005 38 354 0.0 0.0 0.00 0.09 0.03 92 1010.9
20260510080504 38 354 0.0 0.0 0.00 0.09 0.03 93 1010.9
20260510080004 38 354 0.0 0.0 0.00 0.09 0.03 92 1010.9
20260510075504 38 354 0.0 1.7 0.00 0.09 0.03 92 1010.9
20260510074504 38 354 0.9 2.6 0.00 0.09 0.03 92 1010.9
20260510074004 38 354 2.6 5.2 0.00 0.09 0.03 92 1010.9
20260510073005 38 81 1.7 4.3 0.00 0.09 0.03 92 1010.8
20260510072004 38 17 5.2 7.8 0.00 0.09 0.03 92 1010.9
20260510070504 38 6 3.5 5.2 0.03 0.09 0.03 92 1011.0
20260510070004 38 27 2.6 5.2 0.03 0.09 0.03 91 1011.0
20260510065504 38 36 2.6 5.2 0.02 0.09 0.03 91 1011.0
20260510065004 38 0 4.3 5.2 0.03 0.09 0.03 91 1011.1
20260510064504 38 13 3.5 6.1 0.04 0.09 0.03 91 1011.1
20260510064004 38 1 2.6 5.2 0.05 0.09 0.03 91 1011.1
20260510063005 38 357 4.3 5.2 0.00 0.09 0.03 90 1011.0
20260510062505 38 9 3.5 5.2 0.00 0.09 0.03 90 1011.0
20260510062004 39 1 3.5 5.2 0.00 0.10 0.03 90 1011.1
20260510061505 39 349 4.3 6.1 0.06 0.09 0.02 89 1011.4
20260510061004 39 348 5.2 7.8 0.05 0.08 0.01 90 1011.4
20260510060505 39 348 5.2 7.0 0.04 0.07 0.00 90 1011.3
20260510060005 39 356 3.5 5.2 0.04 0.07 0.00 89 1011.1
20260510055504 39 52 1.7 2.6 0.04 0.07 0.07 88 1011.0
20260510055004 39 118 1.7 2.6 0.03 0.06 0.06 88 1011.0
20260510054504 39 118 2.6 2.6 0.02 0.05 0.05 87 1011.1
20260510054004 39 107 2.6 4.3 0.01 0.04 0.04 86 1011.4
20260510053505 40 136 2.6 4.3 0.01 0.04 0.04 86 1011.5
20260510053004 40 122 4.3 6.1 0.01 0.03 0.03 86 1011.4
20260510052504 40 138 6.1 7.0 0.01 0.03 0.03 85 1011.2
20260510052005 40 138 5.2 7.8 0.01 0.03 0.03 85 1011.2
20260510051504 40 143 2.6 6.1 0.02 0.03 0.03 85 1011.1
20260510051004 40 135 1.7 5.2 0.02 0.03 0.03 85 1011.1
20260510050505 40 142 5.2 10.4 0.02 0.03 0.03 85 1010.9
20260510050005 41 141 4.3 7.8 0.03 0.03 0.03 85 1010.9
20260510045004 41 128 6.1 10.4 0.03 0.03 0.03 85 1010.6
20260510044005 41 115 3.5 7.0 0.03 0.03 0.03 88 1010.7
20260510043504 41 129 6.1 10.4 0.03 0.03 0.03 87 1010.7
20260510043005 41 128 4.3 6.1 0.02 0.02 0.02 88 1010.6
20260510042504 41 123 3.5 5.2 0.02 0.02 0.02 87 1010.7
20260510042004 42 102 4.3 10.4 0.02 0.02 0.02 86 1010.7
20260510041004 42 117 7.8 12.2 0.01 0.01 0.01 84 1010.7
20260510040505 43 118 7.0 11.3 0.01 0.01 0.01 82 1010.5
20260510040004 43 110 6.1 10.4 0.00 0.00 0.00 81 1010.6
20260510035504 43 119 3.5 6.1 0.00 0.00 0.00 79 1010.6
20260510035005 44 136 4.3 8.7 0.00 0.00 0.00 78 1010.6
20260510034504 44 113 4.3 11.3 0.00 0.00 0.00 76 1010.3
20260510034005 44 95 2.6 7.8 0.00 0.00 0.00 75 1010.1
20260510033505 44 40 2.6 6.1 0.00 0.00 0.00 75 1010.1
20260510033005 44 91 2.6 5.2 0.00 0.00 0.00 73 1009.9
20260510032504 45 90 3.5 6.1 0.00 0.00 0.00 73 1009.7
20260510032004 45 132 2.6 4.3 0.00 0.00 0.00 71 1009.7
20260510031504 45 135 3.5 7.0 0.00 0.00 0.00 71 1009.5
20260510031005 45 116 4.3 7.8 0.00 0.00 0.00 70 1009.1
20260510030005 45 125 7.8 10.4 0.00 0.00 0.00 69 1009.0
20260510025504 45 148 7.0 10.4 0.00 0.00 0.00 68 1009.1
20260510025005 46 129 4.3 8.7 0.00 0.00 0.00 67 1009.3
20260510024504 46 101 7.8 11.3 0.00 0.00 0.00 67 1009.3
20260510024004 45 151 7.0 11.3 0.00 0.00 0.00 67 1008.5
20260510023504 45 118 6.1 10.4 0.00 0.00 0.00 69 1008.1
20260510023004 45 129 7.0 12.2 0.00 0.00 0.00 70 1007.6
20260510022504 45 126 8.7 13.9 0.00 0.00 0.00 72 1007.4
20260510022004 44 141 8.7 14.8 0.00 0.00 0.00 73 1007.0
20260510021504 45 115 6.1 11.3 0.00 0.00 0.00 73 1006.7
20260510021005 45 89 7.0 13.0 0.00 0.00 0.00 72 1006.3
20260510020505 45 87 7.8 12.2 0.00 0.00 0.00 71 1006.2
20260510020005 45 88 10.4 14.8 0.00 0.00 0.00 71 1006.2
20260510015504 45 79 10.4 13.9 0.00 0.00 0.00 70 1006.2
20260510015004 46 89 10.4 15.6 0.00 0.00 0.00 69 1005.9
20260510014504 46 78 10.4 14.8 0.00 0.00 0.00 68 1006.1
20260510014004 46 49 10.4 17.4 0.00 0.00 0.00 67 1006.1
20260510013504 47 71 15.6 21.7 0.00 0.00 0.00 66 1005.5
20260510013005 47 95 13.9 20.0 0.00 0.00 0.00 64 1004.9
20260510012504 49 95 8.7 20.9 0.00 0.00 0.00 62 1005.0
20260510012004 50 56 8.7 13.0 0.00 0.00 0.00 60 1004.9
20260510011504 50 0 10.4 15.6 0.00 0.00 0.00 59 1004.9
20260510011004 51 52 10.4 15.6 0.00 0.00 0.00 57 1004.8
20260510010504 51 80 8.7 15.6 0.00 0.00 0.00 55 1004.6
20260510010004 53 55 7.8 14.8 0.00 0.00 0.00 53 1004.6
20260510005504 53 25 8.7 14.8 0.00 0.00 0.00 52 1004.5
20260510005004 54 16 7.0 12.2 0.00 0.00 0.00 49 1004.6
20260510004504 54 328 2.6 15.6 0.00 0.00 0.00 50 1004.6
20260510004005 54 82 8.7 17.4 0.00 0.00 0.00 49 1004.4
20260510003504 55 86 11.3 17.4 0.00 0.00 0.00 46 1004.3
20260510003004 58 63 8.7 13.9 0.00 0.00 0.00 42 1004.4
20260510002505 61 112 5.2 10.4 0.00 0.00 0.00 37 1004.6
20260510002005 63 2 1.7 8.7 0.00 0.00 0.00 20 1004.3
20260510001504 62 224 6.1 10.4 0.00 0.00 0.00 18 1004.3
20260510001005 62 232 6.1 13.0 0.00 0.00 0.00 18 1004.3
20260510000504 62 260 4.3 13.9 0.00 0.00 0.00 19 1004.3
20260509235504 62 222 8.7 13.0 0.00 0.00 0.00 16 1004.1
20260509235005 63 220 4.3 11.3 0.00 0.00 0.00 18 1004.1
20260509234504 63 253 5.2 14.8 0.00 0.00 0.00 19 1004.2
20260509234004 64 242 7.8 17.4 0.00 0.00 0.00 18 1004.1
20260509233504 64 255 7.0 13.9 0.00 0.00 0.00 17 1004.1
20260509233004 64 251 4.3 13.9 0.00 0.00 0.00 17 1004.0
20260509232504 65 260 7.8 15.6 0.00 0.00 0.00 17 1003.8
20260509232004 67 259 6.1 13.9 0.00 0.00 0.00 16 1003.6
20260509231504 66 287 4.3 11.3 0.00 0.00 0.00 17 1003.6
20260509231004 66 260 5.2 17.4 0.00 0.00 0.00 18 1003.6
20260509230504 66 295 9.6 15.6 0.00 0.00 0.00 17 1003.6
20260509230004 65 235 9.6 15.6 0.00 0.00 0.00 16 1003.6
20260509225504 67 270 2.6 13.0 0.00 0.00 0.00 15 1003.5
20260509225004 67 288 10.4 20.0 0.00 0.00 0.00 16 1003.4
20260509224504 67 304 8.7 19.1 0.00 0.00 0.00 16 1003.2
20260509224005 66 285 8.7 17.4 0.00 0.00 0.00 15 1003.4
20260509223504 66 254 10.4 20.0 0.00 0.00 0.00 17 1003.2
20260509223005 66 257 11.3 19.1 0.00 0.00 0.00 15 1003.0
20260509222504 66 261 9.6 20.0 0.00 0.00 0.00 15 1003.2
20260509222004 66 289 7.8 17.4 0.00 0.00 0.00 15 1003.0
20260509221505 66 248 6.1 13.9 0.00 0.00 0.00 16 1003.0
20260509220504 66 235 5.2 13.0 0.00 0.00 0.00 18 1003.1
20260509220004 66 274 8.7 18.2 0.00 0.00 0.00 18 1003.5
20260509215504 65 255 7.0 19.1 0.00 0.00 0.00 17 1003.6
20260509215004 65 249 10.4 19.1 0.00 0.00 0.00 15 1003.6
20260509214004 65 245 11.3 18.2 0.00 0.00 0.00 17 1003.5
20260509213005 67 230 7.0 12.2 0.00 0.00 0.00 16 1003.5
20260509212504 66 227 5.2 18.2 0.00 0.00 0.00 19 1003.5
20260509212004 66 228 3.5 10.4 0.00 0.00 0.00 17 1003.5
20260509211505 65 182 3.5 15.6 0.00 0.00 0.00 21 1003.6
20260509211004 65 227 7.8 14.8 0.00 0.00 0.00 17 1003.6
20260509210004 66 216 5.2 13.9 0.00 0.00 0.00 14 1003.6
20260509205504 66 269 6.1 14.8 0.00 0.00 0.00 19 1003.7
20260509205004 66 283 7.0 14.8 0.00 0.00 0.00 17 1003.6
20260509204504 66 251 6.1 12.2 0.00 0.00 0.00 16 1003.6
20260509204004 66 314 4.3 13.9 0.00 0.00 0.00 17 1003.6
20260509203504 66 249 7.8 13.9 0.00 0.00 0.00 18 1003.6
20260509202004 68 254 2.6 13.0 0.00 0.00 0.00 17 1003.5
20260509201504 68 284 8.7 17.4 0.00 0.00 0.00 17 1003.6
20260509201005 67 260 3.5 10.4 0.00 0.00 0.00 21 1003.5
20260509200004 67 311 8.7 13.9 0.00 0.00 0.00 20 1003.5
20260509195505 66 341 2.6 6.1 0.00 0.00 0.00 19 1003.8
20260509195004 66 253 5.2 12.2 0.00 0.00 0.00 18 1004.3
20260509194504 65 277 7.8 17.4 0.00 0.00 0.00 18 1004.5
20260509194004 65 256 10.4 17.4 0.00 0.00 0.00 19 1004.4
20260509193504 64 237 7.8 17.4 0.00 0.00 0.00 19 1004.5
20260509193004 65 279 8.7 14.8 0.00 0.00 0.00 18 1004.3
20260509192504 64 257 8.7 17.4 0.00 0.00 0.00 18 1004.1
20260509192004 64 199 8.7 14.8 0.00 0.00 0.00 20 1004.2
20260509191504 64 238 5.2 13.9 0.00 0.00 0.00 19 1004.3
20260509191004 64 246 10.4 17.4 0.00 0.00 0.00 18 1004.4
20260509190504 64 332 7.8 14.8 0.00 0.00 0.00 17 1004.2
20260509190005 64 275 7.8 18.2 0.00 0.00 0.00 20 1004.2
20260509185504 64 264 6.1 13.0 0.00 0.00 0.00 18 1004.2
20260509185004 63 270 5.2 13.9 0.00 0.00 0.00 19 1004.1
20260509184504 63 269 5.2 13.0 0.00 0.00 0.00 18 1004.3
20260509184004 63 225 7.0 12.2 0.00 0.00 0.00 17 1004.2
20260509183504 62 224 0.9 12.2 0.00 0.00 0.00 20 1004.3
20260509183004 62 231 10.4 20.9 0.00 0.00 0.00 18 1004.5
20260509182504 62 213 11.3 18.2 0.00 0.00 0.00 19 1004.3
20260509182004 62 246 8.7 18.2 0.00 0.00 0.00 20 1004.2
20260509180504 62 236 5.2 8.7 0.00 0.00 0.00 20 1004.3
20260509180004 63 242 4.3 10.4 0.00 0.00 0.00 18 1004.2
20260509175504 62 206 7.8 13.9 0.00 0.00 0.00 21 1004.2
20260509174505 61 259 4.3 11.3 0.00 0.00 0.00 20 1004.3
20260509174004 61 215 5.2 10.4 0.00 0.00 0.00 20 1004.4
20260509173505 61 251 7.8 14.8 0.00 0.00 0.00 20 1004.6
20260509172504 61 259 7.8 14.8 0.00 0.00 0.00 20 1004.6
20260509171504 60 248 7.8 15.6 0.00 0.00 0.00 23 1004.5
20260509171004 60 247 11.3 17.4 0.00 0.00 0.00 18 1004.4
20260509170505 60 240 7.8 15.6 0.00 0.00 0.00 23 1004.2
20260509165504 60 245 11.3 17.4 0.00 0.00 0.00 20 1004.4
20260509165004 60 243 9.6 17.4 0.00 0.00 0.00 22 1004.6
20260509164505 60 255 7.0 13.0 0.00 0.00 0.00 21 1004.7
20260509164004 60 203 8.7 17.4 0.00 0.00 0.00 21 1004.6
20260509163505 60 252 7.8 17.4 0.00 0.00 0.00 20 1004.5
20260509163005 60 221 7.8 13.0 0.00 0.00 0.00 20 1004.5
20260509162504 60 223 7.8 13.9 0.00 0.00 0.00 22 1004.5
20260509162004 60 225 5.2 12.2 0.00 0.00 0.00 22 1004.6
20260509161505 60 206 4.3 10.4 0.00 0.00 0.00 22 1004.6
20260509161004 60 250 5.2 13.0 0.00 0.00 0.00 22 1004.6
20260509160504 60 249 7.8 12.2 0.00 0.00 0.00 20 1004.6
20260509155504 60 240 4.3 8.7 0.00 0.00 0.00 21 1004.5
20260509155004 59 277 5.2 11.3 0.00 0.00 0.00 20 1004.4
20260509154505 59 225 4.3 8.7 0.00 0.00 0.00 22 1004.3
20260509154004 59 246 4.3 10.4 0.00 0.00 0.00 22 1004.2
20260509153504 59 219 2.6 10.4 0.00 0.00 0.00 20 1004.2
20260509152504 58 236 1.7 8.7 0.00 0.00 0.00 21 1004.6
20260509152004 58 248 5.2 11.3 0.00 0.00 0.00 21 1004.5
20260509151505 58 242 2.6 5.2 0.00 0.00 0.00 22 1004.6
20260509151004 58 299 2.6 7.8 0.00 0.00 0.00 22 1004.7
20260509150505 58 270 2.6 8.7 0.00 0.00 0.00 23 1004.8
20260509150004 57 291 4.3 8.7 0.00 0.00 0.00 25 1004.6
20260509145004 57 203 6.1 12.2 0.00 0.00 0.00 23 1004.7
20260509144504 57 199 6.1 10.4 0.00 0.00 0.00 26 1004.6
20260509144004 57 199 4.3 8.7 0.00 0.00 0.00 23 1004.7
20260509143504 57 237 5.2 11.3 0.00 0.00 0.00 22 1004.8
20260509143004 57 253 1.7 6.1 0.00 0.00 0.00 27 1004.7
20260509142504 57 85 2.6 5.2 0.00 0.00 0.00 27 1004.5